Time,TemperatureF,DewpointF,PressureIn,WindDirection,WindDirectionDegrees,WindSpeedMPH,WindSpeedGustMPH,Humidity,HourlyPrecipIn,Conditions,Clouds,dailyrainin,SoftwareType,DateUTC
2013-02-16 00:03:00,40.1,38.0,30.76,ENE,78,0.0,0.2,92,0.00,SCT,FEW,0.00,WeatherDisplay:10.37,2013-02-16 00:03:00,
2013-02-16 00:08:00,40.1,38.0,30.76,ENE,78,0.0,0.2,92,0.00,SCT,FEW,0.00,WeatherDisplay:10.37,2013-02-16 00:08:00,
2013-02-16 00:13:00,39.7,37.6,30.76,ENE,78,0.0,0.2,92,0.00,SCT,FEW,0.00,WeatherDisplay:10.37,2013-02-16 00:13:00,
2013-02-16 00:18:00,39.4,37.2,30.76,ENE,78,0.0,0.0,92,0.00,SCT,FEW,0.00,WeatherDisplay:10.37,2013-02-16 00:18:00,
2013-02-16 00:23:00,39.4,37.2,30.76,ENE,78,0.0,0.0,92,0.00,SCT,FEW,0.00,WeatherDisplay:10.37,2013-02-16 00:23:00,
2013-02-16 00:29:00,39.0,36.9,30.76,East,100,0.0,0.0,92,0.00,SCT,FEW,0.00,WeatherDisplay:10.37,2013-02-16 00:29:00,
2013-02-16 00:34:00,39.0,36.9,30.76,ENE,78,0.0,0.0,92,0.00,SCT,FEW,0.00,WeatherDisplay:10.37,2013-02-16 00:34:00,
2013-02-16 00:39:00,39.0,37.2,30.76,ENE,78,2.3,2.3,93,0.00,SCT,FEW,0.00,WeatherDisplay:10.37,2013-02-16 00:39:00,
2013-02-16 00:44:00,39.0,37.2,30.76,ENE,78,0.0,0.4,93,0.00,SCT,FEW,0.00,WeatherDisplay:10.37,2013-02-16 00:44:00,
2013-02-16 00:49:00,38.7,36.8,30.76,ENE,78,0.0,0.2,93,0.00,SCT,FEW,0.00,WeatherDisplay:10.37,2013-02-16 00:49:00,
2013-02-16 00:54:00,38.5,36.6,30.76,ENE,78,0.0,0.0,93,0.00,SCT,FEW,0.00,WeatherDisplay:10.37,2013-02-16 00:54:00,
2013-02-16 00:59:00,38.5,36.6,30.76,ENE,78,0.0,0.0,93,0.00,SCT,FEW,0.00,WeatherDisplay:10.37,2013-02-16 00:59:00,
2013-02-16 01:04:00,38.5,36.9,30.76,East,100,1.3,1.3,94,0.00,SCT,FEW,0.00,WeatherDisplay:10.37,2013-02-16 01:04:00,
2013-02-16 01:09:00,38.8,37.3,30.76,NW,325,0.0,0.1,94,0.00,SCT,FEW,0.00,WeatherDisplay:10.37,2013-02-16 01:09:00,
2013-02-16 01:14:00,38.7,37.1,30.76,NW,325,0.0,0.1,94,0.00,SCT,FEW,0.00,WeatherDisplay:10.37,2013-02-16 01:14:00,
2013-02-16 01:19:00,38.8,37.3,30.76,NW,325,0.0,0.0,94,0.00,SCT,FEW,0.00,WeatherDisplay:10.37,2013-02-16 01:19:00,
2013-02-16 01:24:00,39.0,37.4,30.76,NW,325,0.0,0.0,94,0.00,SCT,FEW,0.00,WeatherDisplay:10.37,2013-02-16 01:24:00,
2013-02-16 01:29:00,39.2,37.6,30.76,NW,325,0.0,0.0,94,0.00,SCT,FEW,0.00,WeatherDisplay:10.37,2013-02-16 01:29:00,
2013-02-16 01:34:00,39.4,37.8,30.76,NW,325,0.0,0.0,94,0.00,SCT,FEW,0.00,WeatherDisplay:10.37,2013-02-16 01:34:00,
2013-02-16 01:39:00,39.7,38.2,30.76,NW,325,0.0,0.0,94,0.00,SCT,FEW,0.00,WeatherDisplay:10.37,2013-02-16 01:39:00,
2013-02-16 01:44:00,39.9,38.3,30.76,NW,325,0.0,0.0,94,0.00,SCT,FEW,0.00,WeatherDisplay:10.37,2013-02-16 01:44:00,
2013-02-16 01:49:00,40.5,39.1,30.76,NW,325,0.0,0.1,95,0.00,SCT,FEW,0.00,WeatherDisplay:10.37,2013-02-16 01:49:00,
2013-02-16 01:55:00,40.5,39.1,30.76,West,280,0.0,0.1,95,0.00,SCT,FEW,0.00,WeatherDisplay:10.37,2013-02-16 01:55:00,
2013-02-16 02:00:00,40.6,39.3,30.74,West,280,0.0,0.0,95,0.00,SCT,FEW,0.00,WeatherDisplay:10.37,2013-02-16 02:00:00,
2013-02-16 02:05:00,40.8,39.5,30.74,West,280,0.0,0.0,95,0.00,BKN,FEW,0.00,WeatherDisplay:10.37,2013-02-16 02:05:00,
2013-02-16 02:10:00,40.6,39.3,30.74,West,280,0.0,0.0,95,0.00,BKN,FEW,0.00,WeatherDisplay:10.37,2013-02-16 02:10:00,
2013-02-16 02:15:00,40.8,39.5,30.74,West,280,1.1,1.1,95,0.00,BKN,FEW,0.00,WeatherDisplay:10.37,2013-02-16 02:15:00,
2013-02-16 02:20:00,41.0,39.7,30.74,West,280,0.0,0.2,95,0.00,BKN,FEW,0.00,WeatherDisplay:10.37,2013-02-16 02:20:00,
2013-02-16 02:25:00,41.0,39.7,30.74,West,280,0.0,0.0,95,0.00,BKN,FEW,0.00,WeatherDisplay:10.37,2013-02-16 02:25:00,
2013-02-16 02:30:00,41.2,39.9,30.74,West,280,0.0,0.0,95,0.00,BKN,FEW,0.00,WeatherDisplay:10.37,2013-02-16 02:30:00,
2013-02-16 02:35:00,41.4,40.0,30.74,ENE,78,0.0,0.0,95,0.00,BKN,FEW,0.00,WeatherDisplay:10.37,2013-02-16 02:35:00,
2013-02-16 02:40:00,41.4,40.0,30.74,NW,325,0.0,0.0,95,0.00,BKN,FEW,0.00,WeatherDisplay:10.37,2013-02-16 02:40:00,
2013-02-16 02:45:00,41.5,40.2,30.74,NW,325,0.0,0.0,95,0.00,BKN,FEW,0.00,WeatherDisplay:10.37,2013-02-16 02:45:00,
2013-02-16 02:50:00,41.5,40.2,30.74,ENE,78,2.3,2.3,95,0.00,BKN,FEW,0.00,WeatherDisplay:10.37,2013-02-16 02:50:00,
2013-02-16 02:55:00,41.9,40.6,30.74,ENE,78,0.0,0.6,95,0.00,BKN,FEW,0.00,WeatherDisplay:10.37,2013-02-16 02:55:00,
2013-02-16 03:00:00,41.9,40.6,30.74,ENE,78,0.0,0.1,95,0.00,BKN,FEW,0.00,WeatherDisplay:10.37,2013-02-16 03:00:00,
2013-02-16 03:05:00,41.7,40.4,30.74,ENE,78,0.0,0.0,95,0.00,BKN,FEW,0.00,WeatherDisplay:10.37,2013-02-16 03:05:00,
2013-02-16 03:10:00,41.7,40.4,30.74,ENE,78,0.0,0.0,95,0.00,BKN,FEW,0.00,WeatherDisplay:10.37,2013-02-16 03:10:00,
2013-02-16 03:15:00,42.1,40.8,30.74,ENE,78,0.0,0.0,95,0.00,BKN,FEW,0.00,WeatherDisplay:10.37,2013-02-16 03:15:00,
2013-02-16 03:20:00,42.1,40.8,30.73,ENE,78,0.0,0.0,95,0.00,BKN,FEW,0.00,WeatherDisplay:10.37,2013-02-16 03:20:00,
2013-02-16 03:25:00,42.1,40.8,30.73,ENE,78,0.0,0.0,95,0.00,BKN,FEW,0.00,WeatherDisplay:10.37,2013-02-16 03:25:00,
2013-02-16 03:30:00,42.1,40.8,30.73,ENE,78,0.0,0.0,95,0.00,BKN,FEW,0.00,WeatherDisplay:10.37,2013-02-16 03:30:00,
2013-02-16 03:35:00,42.3,40.9,30.73,ENE,78,0.0,0.0,95,0.00,BKN,FEW,0.00,WeatherDisplay:10.37,2013-02-16 03:35:00,
2013-02-16 03:40:00,42.1,40.8,30.73,ENE,78,0.0,0.0,95,0.00,BKN,FEW,0.00,WeatherDisplay:10.37,2013-02-16 03:40:00,
2013-02-16 03:45:00,42.1,40.5,30.73,ENE,78,0.0,0.0,94,0.00,BKN,FEW,0.00,WeatherDisplay:10.37,2013-02-16 03:45:00,
2013-02-16 03:50:00,42.1,40.5,30.73,ENE,78,0.0,0.0,94,0.00,BKN,FEW,0.00,WeatherDisplay:10.37,2013-02-16 03:50:00,
2013-02-16 03:55:00,42.1,40.5,30.73,ENE,78,0.0,0.0,94,0.00,BKN,FEW,0.00,WeatherDisplay:10.37,2013-02-16 03:55:00,
2013-02-16 04:00:00,42.1,40.5,30.73,ENE,78,0.0,0.0,94,0.00,BKN,FEW,0.00,WeatherDisplay:10.37,2013-02-16 04:00:00,
2013-02-16 04:05:00,42.1,40.5,30.73,ENE,78,0.0,0.0,94,0.00,BKN,FEW,0.00,WeatherDisplay:10.37,2013-02-16 04:05:00,
2013-02-16 04:10:00,42.1,40.5,30.73,ENE,78,0.0,0.0,94,0.00,BKN,FEW,0.00,WeatherDisplay:10.37,2013-02-16 04:10:00,
2013-02-16 04:15:00,42.1,40.5,30.73,ENE,78,0.0,0.1,94,0.00,BKN,FEW,0.00,WeatherDisplay:10.37,2013-02-16 04:15:00,
2013-02-16 04:20:00,42.1,40.5,30.73,ENE,78,2.3,2.3,94,0.00,BKN,FEW,0.00,WeatherDisplay:10.37,2013-02-16 04:20:00,
2013-02-16 04:25:00,42.1,40.5,30.73,ENE,78,1.1,1.1,94,0.00,BKN,FEW,0.00,WeatherDisplay:10.37,2013-02-16 04:25:00,
2013-02-16 04:30:00,42.3,40.9,30.73,ENE,78,0.0,0.2,95,0.00,BKN,FEW,0.00,WeatherDisplay:10.37,2013-02-16 04:30:00,
2013-02-16 04:35:00,42.3,40.7,30.73,ENE,78,0.0,0.2,94,0.00,BKN,FEW,0.00,WeatherDisplay:10.37,2013-02-16 04:35:00,
2013-02-16 04:40:00,42.6,41.0,30.72,East,100,0.0,0.0,94,0.00,BKN,FEW,0.00,WeatherDisplay:10.37,2013-02-16 04:40:00,
2013-02-16 04:45:00,42.6,41.0,30.72,ENE,78,0.0,0.0,94,0.00,BKN,FEW,0.00,WeatherDisplay:10.37,2013-02-16 04:45:00,
2013-02-16 04:50:00,42.6,41.0,30.72,ENE,78,0.0,0.0,94,0.00,BKN,FEW,0.00,WeatherDisplay:10.37,2013-02-16 04:50:00,
2013-02-16 04:55:00,42.6,41.0,30.72,ENE,78,0.0,0.0,94,0.00,BKN,FEW,0.00,WeatherDisplay:10.37,2013-02-16 04:55:00,
2013-02-16 05:00:00,42.4,40.8,30.72,East,100,0.0,0.0,94,0.00,BKN,FEW,0.00,WeatherDisplay:10.37,2013-02-16 05:00:00,
2013-02-16 05:05:00,42.6,41.0,30.72,ENE,78,0.0,0.0,94,0.00,BKN,FEW,0.00,WeatherDisplay:10.37,2013-02-16 05:05:00,
2013-02-16 05:10:00,42.6,41.0,30.72,ENE,78,0.0,0.0,94,0.00,BKN,FEW,0.00,WeatherDisplay:10.37,2013-02-16 05:10:00,
2013-02-16 05:15:00,42.8,41.5,30.72,ENE,78,0.0,0.0,95,0.00,BKN,FEW,0.00,WeatherDisplay:10.37,2013-02-16 05:15:00,
2013-02-16 05:20:00,42.8,41.5,30.72,ENE,78,0.0,0.0,95,0.00,BKN,FEW,0.00,WeatherDisplay:10.37,2013-02-16 05:20:00,
2013-02-16 05:23:00,42.8,41.5,30.72,ENE,78,0.0,0.0,95,0.00,BKN,FEW,0.00,WeatherDisplay:10.37,2013-02-16 05:23:00,
2013-02-16 05:28:00,42.8,41.5,30.72,East,100,0.0,0.0,95,0.00,BKN,FEW,0.00,WeatherDisplay:10.37,2013-02-16 05:28:00,
2013-02-16 05:33:00,42.8,41.5,30.72,East,100,0.0,0.0,95,0.00,BKN,FEW,0.00,WeatherDisplay:10.37,2013-02-16 05:33:00,
2013-02-16 05:38:00,43.0,41.6,30.72,ENE,78,0.0,0.0,95,0.00,BKN,FEW,0.00,WeatherDisplay:10.37,2013-02-16 05:38:00,
2013-02-16 05:43:00,43.0,41.6,30.72,ENE,78,0.0,0.0,95,0.00,BKN,FEW,0.00,WeatherDisplay:10.37,2013-02-16 05:43:00,
2013-02-16 05:48:00,43.2,41.8,30.72,ENE,78,0.0,0.0,95,0.00,BKN,FEW,0.00,WeatherDisplay:10.37,2013-02-16 05:48:00,
2013-02-16 05:53:00,43.3,42.0,30.72,ENE,78,0.0,0.0,95,0.00,BKN,FEW,0.00,WeatherDisplay:10.37,2013-02-16 05:53:00,
2013-02-16 05:58:00,43.2,41.8,30.73,ENE,78,1.1,1.1,95,0.00,BKN,FEW,0.00,WeatherDisplay:10.37,2013-02-16 05:58:00,
2013-02-16 06:03:00,43.3,42.0,30.73,ENE,78,1.1,1.1,95,0.00,BKN,FEW,0.00,WeatherDisplay:10.37,2013-02-16 06:03:00,
2013-02-16 06:08:00,43.3,42.0,30.73,ENE,78,1.4,1.4,95,0.00,BKN,FEW,0.00,WeatherDisplay:10.37,2013-02-16 06:08:00,
2013-02-16 06:13:00,43.3,42.0,30.73,ENE,78,1.4,1.4,95,0.00,BKN,FEW,0.00,WeatherDisplay:10.37,2013-02-16 06:13:00,
2013-02-16 06:18:00,43.7,42.6,30.73,ENE,78,0.0,0.7,96,0.00,BKN,FEW,0.00,WeatherDisplay:10.37,2013-02-16 06:18:00,
2013-02-16 06:23:00,43.7,42.6,30.73,ENE,78,0.0,0.1,96,0.00,BKN,FEW,0.00,WeatherDisplay:10.37,2013-02-16 06:23:00,
2013-02-16 06:28:00,43.5,42.5,30.73,ENE,78,1.1,1.1,96,0.00,BKN,FEW,0.00,WeatherDisplay:10.37,2013-02-16 06:28:00,
2013-02-16 06:33:00,43.5,42.5,30.73,ESE,122,0.0,0.5,96,0.00,BKN,FEW,0.00,WeatherDisplay:10.37,2013-02-16 06:33:00,
2013-02-16 06:38:00,43.5,42.5,30.73,ESE,122,0.0,0.2,96,0.00,BKN,FEW,0.00,WeatherDisplay:10.37,2013-02-16 06:38:00,
2013-02-16 06:43:00,43.5,42.5,30.73,ESE,122,0.0,0.1,96,0.00,BKN,FEW,0.00,WeatherDisplay:10.37,2013-02-16 06:43:00,
2013-02-16 06:48:00,43.5,42.5,30.73,ESE,122,0.0,0.1,96,0.00,BKN,FEW,0.00,WeatherDisplay:10.37,2013-02-16 06:48:00,
2013-02-16 06:53:00,43.7,42.6,30.73,SE,145,0.0,0.1,96,0.00,BKN,FEW,0.00,WeatherDisplay:10.37,2013-02-16 06:53:00,
2013-02-16 06:58:00,43.7,42.6,30.73,SE,145,2.3,2.3,96,0.00,BKN,FEW,0.00,WeatherDisplay:10.37,2013-02-16 06:58:00,
2013-02-16 07:03:00,43.7,42.6,30.73,ESE,122,0.0,0.1,96,0.00,BKN,FEW,0.00,WeatherDisplay:10.37,2013-02-16 07:03:00,
2013-02-16 07:08:00,43.7,42.6,30.73,East,100,0.0,0.1,96,0.00,BKN,FEW,0.00,WeatherDisplay:10.37,2013-02-16 07:08:00,
2013-02-16 07:13:00,43.9,42.8,30.73,ESE,122,0.0,0.0,96,0.00,BKN,FEW,0.00,WeatherDisplay:10.37,2013-02-16 07:13:00,
2013-02-16 07:18:00,44.1,43.0,30.74,East,100,0.0,0.0,96,0.00,BKN,FEW,0.00,WeatherDisplay:10.37,2013-02-16 07:18:00,
2013-02-16 07:23:00,43.9,42.8,30.74,ESE,122,0.0,0.0,96,0.00,BKN,FEW,0.00,WeatherDisplay:10.37,2013-02-16 07:23:00,
2013-02-16 07:28:00,44.1,43.0,30.74,ENE,78,0.0,0.0,96,0.00,BKN,FEW,0.00,WeatherDisplay:10.37,2013-02-16 07:28:00,
2013-02-16 07:33:00,44.4,43.4,30.74,East,100,0.0,0.0,96,0.00,BKN,FEW,0.00,WeatherDisplay:10.37,2013-02-16 07:33:00,
2013-02-16 07:38:00,44.2,43.2,30.74,ESE,122,0.0,0.0,96,0.00,BKN,FEW,0.00,WeatherDisplay:10.37,2013-02-16 07:38:00,
2013-02-16 07:43:00,44.1,43.0,30.74,ESE,122,0.0,0.0,96,0.00,BKN,FEW,0.00,WeatherDisplay:10.37,2013-02-16 07:43:00,
2013-02-16 07:48:00,44.1,43.0,30.74,ESE,122,0.0,0.0,96,0.00,BKN,FEW,0.00,WeatherDisplay:10.37,2013-02-16 07:48:00,
2013-02-16 07:53:00,44.1,43.0,30.74,ESE,122,0.0,0.0,96,0.00,BKN,FEW,0.00,WeatherDisplay:10.37,2013-02-16 07:53:00,
2013-02-16 07:58:00,44.1,43.0,30.75,ENE,78,0.0,0.0,96,0.00,BKN,FEW,0.00,WeatherDisplay:10.37,2013-02-16 07:58:00,
2013-02-16 08:03:00,44.1,43.0,30.75,ENE,78,0.0,0.0,96,0.00,BKN,FEW,0.00,WeatherDisplay:10.37,2013-02-16 08:03:00,
2013-02-16 08:08:00,44.2,43.2,30.75,ENE,78,1.1,1.1,96,0.00,BKN,FEW,0.00,WeatherDisplay:10.37,2013-02-16 08:08:00,
2013-02-16 08:13:00,44.4,43.4,30.75,ENE,78,0.0,0.4,96,0.00,BKN,FEW,0.00,WeatherDisplay:10.37,2013-02-16 08:13:00,
2013-02-16 08:18:00,44.2,43.2,30.75,ENE,78,0.0,0.2,96,0.00,BKN,FEW,0.00,WeatherDisplay:10.37,2013-02-16 08:18:00,
2013-02-16 08:23:00,44.2,43.2,30.75,ENE,78,2.3,2.3,96,0.00,BKN,FEW,0.00,WeatherDisplay:10.37,2013-02-16 08:23:00,
2013-02-16 08:28:00,44.8,43.7,30.75,ENE,78,0.0,0.2,96,0.00,BKN,FEW,0.00,WeatherDisplay:10.37,2013-02-16 08:28:00,
2013-02-16 08:33:00,44.8,43.7,30.75,East,100,0.0,0.0,96,0.00,BKN,FEW,0.00,WeatherDisplay:10.37,2013-02-16 08:33:00,
2013-02-16 08:39:00,45.0,43.9,30.75,ESE,122,0.0,0.0,96,0.00,BKN,FEW,0.00,WeatherDisplay:10.37,2013-02-16 08:39:00,
2013-02-16 08:44:00,45.1,44.1,30.75,ESE,122,0.0,0.0,96,0.00,BKN,FEW,0.00,WeatherDisplay:10.37,2013-02-16 08:44:00,
2013-02-16 08:49:00,45.1,44.1,30.75,ESE,122,0.0,0.0,96,0.00,BKN,FEW,0.00,WeatherDisplay:10.37,2013-02-16 08:49:00,
2013-02-16 08:54:00,45.5,44.7,30.75,ESE,122,0.0,0.0,97,0.00,BKN,FEW,0.00,WeatherDisplay:10.37,2013-02-16 08:54:00,
2013-02-16 08:59:00,45.7,44.9,30.75,ESE,122,0.0,0.0,97,0.00,BKN,FEW,0.00,WeatherDisplay:10.37,2013-02-16 08:59:00,
2013-02-16 09:04:00,45.9,45.1,30.75,ESE,122,0.0,0.0,97,0.00,BKN,FEW,0.00,WeatherDisplay:10.37,2013-02-16 09:04:00,
2013-02-16 09:09:00,46.2,45.4,30.75,East,100,2.3,2.3,97,0.00,BKN,FEW,0.00,WeatherDisplay:10.37,2013-02-16 09:09:00,
2013-02-16 09:14:00,46.2,45.1,30.75,ENE,78,0.0,0.1,96,0.00,BKN,FEW,0.00,WeatherDisplay:10.37,2013-02-16 09:14:00,
2013-02-16 09:19:00,46.4,45.3,30.75,ESE,122,0.0,0.1,96,0.00,BKN,FEW,0.00,WeatherDisplay:10.37,2013-02-16 09:19:00,
2013-02-16 09:24:00,46.6,45.5,30.75,WNW,302,1.9,1.9,96,0.00,BKN,FEW,0.00,WeatherDisplay:10.37,2013-02-16 09:24:00,
2013-02-16 09:29:00,46.9,45.9,30.75,ENE,78,0.0,0.2,96,0.00,BKN,FEW,0.00,WeatherDisplay:10.37,2013-02-16 09:29:00,
2013-02-16 09:34:00,47.1,46.0,30.75,ENE,78,0.0,0.2,96,0.00,BKN,FEW,0.00,WeatherDisplay:10.37,2013-02-16 09:34:00,
2013-02-16 09:39:00,47.1,46.0,30.76,ENE,78,2.3,2.3,96,0.00,BKN,FEW,0.00,WeatherDisplay:10.37,2013-02-16 09:39:00,
2013-02-16 09:44:00,47.3,46.2,30.76,ESE,122,3.5,3.5,96,0.00,BKN,FEW,0.00,WeatherDisplay:10.37,2013-02-16 09:44:00,
2013-02-16 09:49:00,47.7,46.6,30.76,SE,145,3.5,3.5,96,0.00,BKN,FEW,0.00,WeatherDisplay:10.37,2013-02-16 09:49:00,
2013-02-16 09:54:00,47.8,46.8,30.76,SE,145,3.5,3.5,96,0.00,BKN,FEW,0.00,WeatherDisplay:10.37,2013-02-16 09:54:00,
2013-02-16 09:59:00,48.4,47.3,30.80,ENE,78,3.5,3.5,96,0.00,BKN,FEW,0.00,WeatherDisplay:10.37,2013-02-16 09:59:00,
2013-02-16 10:04:00,48.4,47.3,30.80,ENE,78,2.3,2.3,96,0.00,-RA,FEW,0.00,WeatherDisplay:10.37,2013-02-16 10:04:00,
2013-02-16 10:09:00,48.0,46.9,30.80,SE,145,1.1,1.2,96,0.00,-RA,FEW,0.00,WeatherDisplay:10.37,2013-02-16 10:09:00,
2013-02-16 10:14:00,47.8,46.8,30.80,ENE,78,4.0,4.0,96,0.00,-RA,FEW,0.00,WeatherDisplay:10.37,2013-02-16 10:14:00,
2013-02-16 10:19:00,47.8,46.8,30.80,ESE,122,4.6,4.6,96,0.00,-RA,FEW,0.00,WeatherDisplay:10.37,2013-02-16 10:19:00,
2013-02-16 10:24:00,48.0,46.9,30.80,SE,145,3.5,3.5,96,0.00,-RA,FEW,0.00,WeatherDisplay:10.37,2013-02-16 10:24:00,
2013-02-16 10:29:00,47.8,46.8,30.80,SE,145,2.3,2.3,96,0.00,-RA,FEW,0.00,WeatherDisplay:10.37,2013-02-16 10:29:00,
2013-02-16 10:34:00,48.0,46.7,30.80,ENE,78,3.5,3.5,95,0.00,-RA,FEW,0.00,WeatherDisplay:10.37,2013-02-16 10:34:00,
2013-02-16 10:39:00,48.2,47.1,30.80,ENE,78,3.5,3.5,96,0.00,-RA,FEW,0.00,WeatherDisplay:10.37,2013-02-16 10:39:00,
2013-02-16 10:44:00,48.7,47.4,30.80,ESE,122,1.1,1.3,95,0.00,-RA,FEW,0.00,WeatherDisplay:10.37,2013-02-16 10:44:00,
2013-02-16 10:49:00,48.6,47.2,30.80,East,100,2.3,2.3,95,0.00,-RA,FEW,0.00,WeatherDisplay:10.37,2013-02-16 10:49:00,
2013-02-16 10:54:00,49.1,47.7,30.80,WSW,258,4.6,4.6,95,0.00,-RA,FEW,0.00,WeatherDisplay:10.37,2013-02-16 10:54:00,
2013-02-16 10:59:00,49.3,47.9,30.80,East,100,3.5,3.5,95,0.00,-RA,FEW,0.00,WeatherDisplay:10.37,2013-02-16 10:59:00,
2013-02-16 11:04:00,50.0,48.6,30.80,East,100,2.3,2.4,95,0.00,BKN,FEW,0.00,WeatherDisplay:10.37,2013-02-16 11:04:00,
2013-02-16 11:09:00,50.2,48.8,30.80,ESE,122,3.5,3.5,95,0.00,BKN,FEW,0.00,WeatherDisplay:10.37,2013-02-16 11:09:00,
2013-02-16 11:14:00,50.4,49.0,30.80,ENE,78,2.3,2.5,95,0.00,BKN,FEW,0.00,WeatherDisplay:10.37,2013-02-16 11:14:00,
2013-02-16 11:19:00,50.5,48.9,30.80,ESE,122,3.5,3.5,94,0.00,BKN,FEW,0.00,WeatherDisplay:10.37,2013-02-16 11:19:00,
2013-02-16 11:24:00,51.3,49.6,30.80,ESE,122,2.3,2.3,94,0.00,BKN,FEW,0.00,WeatherDisplay:10.37,2013-02-16 11:24:00,
2013-02-16 11:29:00,51.4,49.8,30.80,SE,145,2.3,2.3,94,0.00,BKN,FEW,0.00,WeatherDisplay:10.37,2013-02-16 11:29:00,
2013-02-16 11:34:00,51.6,49.9,30.80,ESE,122,3.5,3.5,94,0.00,BKN,FEW,0.00,WeatherDisplay:10.37,2013-02-16 11:34:00,
2013-02-16 11:39:00,52.0,50.0,30.80,SE,145,3.5,3.5,93,0.00,BKN,FEW,0.00,WeatherDisplay:10.37,2013-02-16 11:39:00,
2013-02-16 11:44:00,52.3,50.4,30.80,ENE,78,0.0,1.1,93,0.00,BKN,FEW,0.00,WeatherDisplay:10.37,2013-02-16 11:44:00,
2013-02-16 11:49:00,52.3,50.1,30.80,SE,145,2.3,2.3,92,0.00,BKN,FEW,0.00,WeatherDisplay:10.37,2013-02-16 11:49:00,
2013-02-16 11:54:00,52.7,50.4,30.80,ESE,122,3.6,3.6,92,0.00,BKN,FEW,0.00,WeatherDisplay:10.37,2013-02-16 11:54:00,
2013-02-16 11:59:00,52.5,50.0,30.80,ESE,122,2.3,2.3,91,0.00,BKN,FEW,0.00,WeatherDisplay:10.37,2013-02-16 11:59:00,
2013-02-16 12:04:00,52.7,50.1,30.80,SE,145,1.1,1.2,91,0.00,BKN,FEW,0.00,WeatherDisplay:10.37,2013-02-16 12:04:00,
2013-02-16 12:09:00,52.7,50.1,30.80,SE,145,1.7,1.7,91,0.00,BKN,FEW,0.00,WeatherDisplay:10.37,2013-02-16 12:09:00,
2013-02-16 12:14:00,52.5,49.4,30.80,ENE,78,1.1,1.9,89,0.00,BKN,FEW,0.00,WeatherDisplay:10.37,2013-02-16 12:14:00,
2013-02-16 12:19:00,52.7,49.5,30.80,ENE,78,1.1,1.4,89,0.00,BKN,FEW,0.00,WeatherDisplay:10.37,2013-02-16 12:19:00,
2013-02-16 12:24:00,52.5,49.4,30.80,NW,325,3.5,3.5,89,0.00,BKN,FEW,0.00,WeatherDisplay:10.37,2013-02-16 12:24:00,
2013-02-16 12:29:00,53.1,50.2,30.80,ESE,122,2.3,2.3,90,0.00,BKN,FEW,0.00,WeatherDisplay:10.37,2013-02-16 12:29:00,
2013-02-16 12:34:00,53.4,50.6,30.80,SE,145,3.4,3.4,90,0.00,BKN,FEW,0.00,WeatherDisplay:10.37,2013-02-16 12:34:00,
2013-02-16 12:39:00,53.4,50.3,30.80,ESE,122,2.3,2.3,89,0.00,BKN,FEW,0.00,WeatherDisplay:10.37,2013-02-16 12:39:00,
2013-02-16 12:44:00,53.6,50.1,30.80,East,100,0.0,2.1,88,0.00,BKN,FEW,0.00,WeatherDisplay:10.37,2013-02-16 12:44:00,
2013-02-16 12:49:00,54.1,50.7,30.80,ESE,122,3.5,3.5,88,0.00,BKN,FEW,0.00,WeatherDisplay:10.37,2013-02-16 12:49:00,
2013-02-16 12:54:00,54.1,50.4,30.80,East,100,4.6,4.6,87,0.00,BKN,FEW,0.00,WeatherDisplay:10.37,2013-02-16 12:54:00,
2013-02-16 12:59:00,54.1,50.4,30.80,ESE,122,3.5,3.5,87,0.00,BKN,FEW,0.00,WeatherDisplay:10.37,2013-02-16 12:59:00,
2013-02-16 13:04:00,54.5,50.4,30.80,SE,145,3.5,3.5,86,0.00,BKN,FEW,0.00,WeatherDisplay:10.37,2013-02-16 13:04:00,
2013-02-16 13:09:00,55.0,50.6,30.80,ESE,122,3.6,3.6,85,0.00,BKN,FEW,0.00,WeatherDisplay:10.37,2013-02-16 13:09:00,
2013-02-16 13:14:00,54.9,50.1,30.80,SE,145,10.4,10.4,84,0.00,BKN,FEW,0.00,WeatherDisplay:10.37,2013-02-16 13:14:00,
2013-02-16 13:19:00,55.0,50.0,30.80,ESE,122,5.8,5.8,83,0.00,BKN,FEW,0.00,WeatherDisplay:10.37,2013-02-16 13:19:00,
2013-02-16 13:24:00,55.0,50.0,30.80,SE,145,5.8,5.8,83,0.00,BKN,FEW,0.00,WeatherDisplay:10.37,2013-02-16 13:24:00,
2013-02-16 13:29:00,54.5,49.4,30.80,SE,145,4.6,4.6,83,0.00,BKN,FEW,0.00,WeatherDisplay:10.37,2013-02-16 13:29:00,
2013-02-16 13:34:00,54.5,49.4,30.80,ENE,78,5.8,5.8,83,0.00,BKN,FEW,0.00,WeatherDisplay:10.37,2013-02-16 13:34:00,
2013-02-16 13:39:00,54.3,49.3,30.80,East,100,5.8,5.8,83,0.00,BKN,FEW,0.00,WeatherDisplay:10.37,2013-02-16 13:39:00,
2013-02-16 13:44:00,54.3,49.3,30.80,ENE,78,4.6,4.6,83,0.00,BKN,FEW,0.00,WeatherDisplay:10.37,2013-02-16 13:44:00,
2013-02-16 13:50:00,54.3,48.9,30.80,SE,145,4.6,4.6,82,0.00,BKN,FEW,0.00,WeatherDisplay:10.37,2013-02-16 13:50:00,
2013-02-16 13:55:00,54.5,49.1,30.80,SE,145,5.9,5.9,82,0.00,BKN,FEW,0.00,WeatherDisplay:10.37,2013-02-16 13:55:00,
2013-02-16 14:00:00,54.9,49.5,30.80,SE,145,8.1,8.1,82,0.00,BKN,FEW,0.00,WeatherDisplay:10.37,2013-02-16 14:00:00,
2013-02-16 14:05:00,54.9,49.1,30.80,East,100,5.8,5.8,81,0.00,BKN,FEW,0.00,WeatherDisplay:10.37,2013-02-16 14:05:00,
2013-02-16 14:10:00,54.9,49.1,30.80,East,100,2.3,3.6,81,0.00,BKN,FEW,0.00,WeatherDisplay:10.37,2013-02-16 14:10:00,
2013-02-16 14:15:00,54.9,49.1,30.80,SE,145,4.6,4.6,81,0.00,BKN,FEW,0.00,WeatherDisplay:10.37,2013-02-16 14:15:00,
2013-02-16 14:20:00,54.5,48.8,30.80,West,280,8.1,8.1,81,0.00,BKN,FEW,0.00,WeatherDisplay:10.37,2013-02-16 14:20:00,
2013-02-16 14:25:00,54.3,48.6,30.80,SE,145,3.5,3.5,81,0.00,BKN,FEW,0.00,WeatherDisplay:10.37,2013-02-16 14:25:00,
2013-02-16 14:30:00,54.3,48.6,30.80,ESE,122,3.5,3.5,81,0.00,BKN,FEW,0.00,WeatherDisplay:10.37,2013-02-16 14:30:00,
2013-02-16 14:35:00,54.1,48.4,30.80,ESE,122,4.6,4.6,81,0.00,BKN,FEW,0.00,WeatherDisplay:10.37,2013-02-16 14:35:00,
2013-02-16 14:40:00,54.3,48.6,30.80,SE,145,5.8,5.8,81,0.00,BKN,FEW,0.00,WeatherDisplay:10.37,2013-02-16 14:40:00,
2013-02-16 14:45:00,54.1,48.4,30.80,SE,145,13.0,13.0,81,0.00,BKN,FEW,0.00,WeatherDisplay:10.37,2013-02-16 14:45:00,
2013-02-16 14:50:00,53.8,48.1,30.80,SE,145,4.6,5.2,81,0.00,BKN,FEW,0.00,WeatherDisplay:10.37,2013-02-16 14:50:00,
2013-02-16 14:55:00,53.4,47.7,30.80,SE,145,6.9,6.9,81,0.00,BKN,FEW,0.00,WeatherDisplay:10.37,2013-02-16 14:55:00,
2013-02-16 15:00:00,53.1,47.7,30.80,East,100,6.9,6.9,82,0.00,BKN,FEW,0.00,WeatherDisplay:10.37,2013-02-16 15:00:00,
2013-02-16 15:05:00,52.9,47.9,30.80,SE,145,6.9,6.9,83,0.00,SCT,FEW,0.00,WeatherDisplay:10.37,2013-02-16 15:05:00,
2013-02-16 15:10:00,53.1,48.0,30.80,East,100,3.5,3.6,83,0.00,SCT,FEW,0.00,WeatherDisplay:10.37,2013-02-16 15:10:00,
2013-02-16 15:15:00,52.9,47.9,30.80,SE,145,7.0,7.0,83,0.00,SCT,FEW,0.00,WeatherDisplay:10.37,2013-02-16 15:15:00,
2013-02-16 15:20:00,52.9,47.9,30.80,SE,145,4.6,4.6,83,0.00,SCT,FEW,0.00,WeatherDisplay:10.37,2013-02-16 15:20:00,
2013-02-16 15:25:00,52.7,47.4,30.80,SE,145,10.9,10.9,82,0.00,SCT,FEW,0.00,WeatherDisplay:10.37,2013-02-16 15:25:00,
2013-02-16 15:30:00,52.7,47.7,30.80,SE,145,6.9,6.9,83,0.00,SCT,FEW,0.00,WeatherDisplay:10.37,2013-02-16 15:30:00,
2013-02-16 15:35:00,52.3,47.3,30.80,ESE,122,6.9,6.9,83,0.00,SCT,FEW,0.00,WeatherDisplay:10.37,2013-02-16 15:35:00,
2013-02-16 15:40:00,52.2,47.2,30.80,SE,145,5.8,5.8,83,0.00,SCT,FEW,0.00,WeatherDisplay:10.37,2013-02-16 15:40:00,
2013-02-16 15:45:00,52.2,47.2,30.80,ESE,122,4.6,4.6,83,0.00,SCT,FEW,0.00,WeatherDisplay:10.37,2013-02-16 15:45:00,
2013-02-16 15:50:00,52.2,47.2,30.80,SE,145,9.2,9.2,83,0.00,SCT,FEW,0.00,WeatherDisplay:10.37,2013-02-16 15:50:00,
2013-02-16 15:55:00,52.2,47.2,30.80,SE,145,5.8,5.8,83,0.00,SCT,FEW,0.00,WeatherDisplay:10.37,2013-02-16 15:55:00,
2013-02-16 16:00:00,52.2,46.8,30.80,WSW,258,5.8,5.8,82,0.00,SCT,FEW,0.00,WeatherDisplay:10.37,2013-02-16 16:00:00,
2013-02-16 16:05:00,52.0,46.7,30.80,SE,145,4.6,4.6,82,0.00,BKN,FEW,0.00,WeatherDisplay:10.37,2013-02-16 16:05:00,
2013-02-16 16:10:00,51.6,46.3,30.80,SE,145,12.7,12.7,82,0.00,BKN,FEW,0.00,WeatherDisplay:10.37,2013-02-16 16:10:00,
2013-02-16 16:15:00,51.4,46.4,30.80,NW,325,4.6,5.2,83,0.00,BKN,FEW,0.00,WeatherDisplay:10.37,2013-02-16 16:15:00,
2013-02-16 16:20:00,51.3,46.3,30.80,SE,145,3.5,4.3,83,0.00,BKN,FEW,0.00,WeatherDisplay:10.37,2013-02-16 16:20:00,
2013-02-16 16:25:00,51.3,46.3,30.80,SE,145,8.3,8.3,83,0.00,BKN,FEW,0.00,WeatherDisplay:10.37,2013-02-16 16:25:00,
2013-02-16 16:30:00,50.9,45.9,30.80,SE,145,12.7,12.7,83,0.00,BKN,FEW,0.00,WeatherDisplay:10.37,2013-02-16 16:30:00,
2013-02-16 16:35:00,50.7,45.7,30.80,ENE,78,2.3,5.2,83,0.00,BKN,FEW,0.00,WeatherDisplay:10.37,2013-02-16 16:35:00,
2013-02-16 16:40:00,50.9,46.2,30.80,ENE,78,4.6,4.6,84,0.00,BKN,FEW,0.00,WeatherDisplay:10.37,2013-02-16 16:40:00,
2013-02-16 16:45:00,50.5,45.9,30.80,SE,145,8.1,8.1,84,0.00,BKN,FEW,0.00,WeatherDisplay:10.37,2013-02-16 16:45:00,
2013-02-16 16:50:00,50.4,45.7,30.80,SE,145,3.5,3.5,84,0.00,BKN,FEW,0.00,WeatherDisplay:10.37,2013-02-16 16:50:00,
2013-02-16 16:55:00,50.2,45.5,30.80,SE,145,2.3,3.1,84,0.00,BKN,FEW,0.00,WeatherDisplay:10.37,2013-02-16 16:55:00,
2013-02-16 17:00:00,50.0,45.4,30.80,SE,145,8.1,8.1,84,0.00,BKN,FEW,0.00,WeatherDisplay:10.37,2013-02-16 17:00:00,
2013-02-16 17:05:00,50.0,45.7,30.80,SE,145,11.5,11.5,85,0.00,BKN,FEW,0.00,WeatherDisplay:10.37,2013-02-16 17:05:00,
2013-02-16 17:10:00,49.8,45.5,30.80,ESE,122,8.1,8.1,85,0.00,BKN,FEW,0.00,WeatherDisplay:10.37,2013-02-16 17:10:00,
2013-02-16 17:15:00,49.6,45.3,30.80,SE,145,3.5,4.5,85,0.00,BKN,FEW,0.00,WeatherDisplay:10.37,2013-02-16 17:15:00,
2013-02-16 17:20:00,49.5,45.1,30.80,SE,145,10.4,10.4,85,0.00,BKN,FEW,0.00,WeatherDisplay:10.37,2013-02-16 17:20:00,
2013-02-16 17:25:00,49.3,45.0,30.80,East,100,4.6,4.6,85,0.00,BKN,FEW,0.00,WeatherDisplay:10.37,2013-02-16 17:25:00,
2013-02-16 17:30:00,49.3,45.0,30.80,East,100,9.2,9.2,85,0.00,BKN,FEW,0.00,WeatherDisplay:10.37,2013-02-16 17:30:00,
2013-02-16 17:35:00,49.3,45.0,30.80,ESE,122,2.3,4.7,85,0.00,BKN,FEW,0.00,WeatherDisplay:10.37,2013-02-16 17:35:00,
2013-02-16 17:40:00,49.3,45.0,30.80,SE,145,9.2,9.2,85,0.00,BKN,FEW,0.00,WeatherDisplay:10.37,2013-02-16 17:40:00,
2013-02-16 17:45:00,48.9,44.6,30.80,SE,145,7.0,7.0,85,0.00,BKN,FEW,0.00,WeatherDisplay:10.37,2013-02-16 17:45:00,
2013-02-16 17:50:00,49.1,44.8,30.80,SE,145,4.6,4.6,85,0.00,BKN,FEW,0.00,WeatherDisplay:10.37,2013-02-16 17:50:00,
2013-02-16 17:55:00,48.7,44.4,30.80,SE,145,5.8,5.8,85,0.00,BKN,FEW,0.00,WeatherDisplay:10.37,2013-02-16 17:55:00,
2013-02-16 18:00:00,48.7,44.4,30.80,ESE,122,6.2,6.2,85,0.00,BKN,FEW,0.00,WeatherDisplay:10.37,2013-02-16 18:00:00,
2013-02-16 18:05:00,48.4,44.1,30.80,East,100,6.3,6.3,85,0.00,BKN,FEW,0.00,WeatherDisplay:10.37,2013-02-16 18:05:00,
2013-02-16 18:10:00,48.4,44.1,30.80,ESE,122,6.9,6.9,85,0.00,BKN,FEW,0.00,WeatherDisplay:10.37,2013-02-16 18:10:00,
2013-02-16 18:15:00,48.0,44.0,30.80,SE,145,2.3,2.8,86,0.00,BKN,FEW,0.00,WeatherDisplay:10.37,2013-02-16 18:15:00,
2013-02-16 18:20:00,47.8,43.9,30.82,SE,145,9.3,9.3,86,0.00,BKN,FEW,0.00,WeatherDisplay:10.37,2013-02-16 18:20:00,
2013-02-16 18:25:00,47.8,43.9,30.82,SE,145,3.5,3.5,86,0.00,BKN,FEW,0.00,WeatherDisplay:10.37,2013-02-16 18:25:00,
2013-02-16 18:30:00,47.7,43.7,30.82,ESE,122,11.5,11.5,86,0.00,BKN,FEW,0.00,WeatherDisplay:10.37,2013-02-16 18:30:00,
2013-02-16 18:35:00,47.3,43.3,30.82,ENE,78,4.6,4.6,86,0.00,BKN,FEW,0.00,WeatherDisplay:10.37,2013-02-16 18:35:00,
2013-02-16 18:40:00,47.3,43.3,30.82,ENE,78,4.6,4.6,86,0.00,BKN,FEW,0.00,WeatherDisplay:10.37,2013-02-16 18:40:00,
2013-02-16 18:45:00,47.1,43.1,30.82,ESE,122,3.5,4.0,86,0.00,BKN,FEW,0.00,WeatherDisplay:10.37,2013-02-16 18:45:00,
2013-02-16 18:50:00,46.9,43.0,30.82,East,100,4.6,4.6,86,0.00,BKN,FEW,0.00,WeatherDisplay:10.37,2013-02-16 18:50:00,
2013-02-16 18:55:00,47.1,43.4,30.82,SE,145,5.8,5.8,87,0.00,BKN,FEW,0.00,WeatherDisplay:10.37,2013-02-16 18:55:00,
2013-02-16 19:00:00,47.1,43.4,30.82,ESE,122,8.1,8.1,87,0.00,BKN,FEW,0.00,WeatherDisplay:10.37,2013-02-16 19:00:00,
2013-02-16 19:05:00,47.3,43.6,30.82,SE,145,3.5,3.5,87,0.00,BKN,FEW,0.00,WeatherDisplay:10.37,2013-02-16 19:05:00,
2013-02-16 19:11:00,47.3,43.6,30.82,SE,145,4.6,4.6,87,0.00,BKN,FEW,0.00,WeatherDisplay:10.37,2013-02-16 19:11:00,
2013-02-16 19:16:00,47.3,43.6,30.82,ENE,78,5.8,5.8,87,0.00,BKN,FEW,0.00,WeatherDisplay:10.37,2013-02-16 19:16:00,
2013-02-16 19:21:00,47.3,43.6,30.82,SE,145,1.1,2.9,87,0.00,BKN,FEW,0.00,WeatherDisplay:10.37,2013-02-16 19:21:00,
2013-02-16 19:26:00,47.3,43.6,30.82,SE,145,3.5,3.5,87,0.00,BKN,FEW,0.00,WeatherDisplay:10.37,2013-02-16 19:26:00,
2013-02-16 19:31:00,47.1,43.4,30.82,ESE,122,5.8,5.8,87,0.00,BKN,FEW,0.00,WeatherDisplay:10.37,2013-02-16 19:31:00,
2013-02-16 19:36:00,47.3,43.9,30.82,ESE,122,4.6,4.6,88,0.00,BKN,FEW,0.00,WeatherDisplay:10.37,2013-02-16 19:36:00,
2013-02-16 19:41:00,47.3,43.9,30.82,SE,145,6.9,6.9,88,0.00,BKN,FEW,0.00,WeatherDisplay:10.37,2013-02-16 19:41:00,
2013-02-16 19:46:00,47.1,43.7,30.82,SE,145,4.6,4.6,88,0.00,BKN,FEW,0.00,WeatherDisplay:10.37,2013-02-16 19:46:00,
2013-02-16 19:51:00,46.9,43.6,30.82,SE,145,5.8,5.8,88,0.00,BKN,FEW,0.00,WeatherDisplay:10.37,2013-02-16 19:51:00,
2013-02-16 19:56:00,47.1,43.7,30.82,East,100,9.2,9.2,88,0.00,BKN,FEW,0.00,WeatherDisplay:10.37,2013-02-16 19:56:00,
2013-02-16 20:01:00,47.1,43.7,30.82,ESE,122,3.5,3.6,88,0.00,BKN,FEW,0.00,WeatherDisplay:10.37,2013-02-16 20:01:00,
2013-02-16 20:06:00,47.1,43.7,30.82,SE,145,7.1,7.1,88,0.00,BKN,FEW,0.00,WeatherDisplay:10.37,2013-02-16 20:06:00,
2013-02-16 20:11:00,47.1,43.7,30.82,SE,145,3.5,3.6,88,0.00,BKN,FEW,0.00,WeatherDisplay:10.37,2013-02-16 20:11:00,
2013-02-16 20:16:00,46.9,43.6,30.82,SE,145,2.4,2.9,88,0.00,BKN,FEW,0.00,WeatherDisplay:10.37,2013-02-16 20:16:00,
2013-02-16 20:21:00,46.9,43.6,30.82,East,100,4.6,4.6,88,0.00,BKN,FEW,0.00,WeatherDisplay:10.37,2013-02-16 20:21:00,
2013-02-16 20:26:00,46.6,43.2,30.82,East,100,5.8,5.8,88,0.00,BKN,FEW,0.00,WeatherDisplay:10.37,2013-02-16 20:26:00,
2013-02-16 20:31:00,46.4,43.0,30.82,ESE,122,9.2,9.2,88,0.00,BKN,FEW,0.00,WeatherDisplay:10.37,2013-02-16 20:31:00,
2013-02-16 20:36:00,46.2,42.9,30.82,SE,145,10.6,10.6,88,0.00,BKN,FEW,0.00,WeatherDisplay:10.37,2013-02-16 20:36:00,
2013-02-16 20:41:00,45.9,42.8,30.82,SE,145,9.2,9.2,89,0.00,BKN,FEW,0.00,WeatherDisplay:10.37,2013-02-16 20:41:00,
2013-02-16 20:46:00,45.7,42.3,30.82,West,280,4.6,4.6,88,0.00,BKN,FEW,0.00,WeatherDisplay:10.37,2013-02-16 20:46:00,
2013-02-16 20:51:00,45.7,42.6,30.82,SE,145,5.8,5.8,89,0.00,BKN,FEW,0.00,WeatherDisplay:10.37,2013-02-16 20:51:00,
2013-02-16 20:56:00,45.5,42.4,30.82,East,100,6.9,6.9,89,0.00,BKN,FEW,0.00,WeatherDisplay:10.37,2013-02-16 20:56:00,
2013-02-16 21:01:00,45.3,42.3,30.82,ESE,122,9.2,9.2,89,0.00,BKN,FEW,0.00,WeatherDisplay:10.37,2013-02-16 21:01:00,
2013-02-16 21:06:00,45.5,42.7,30.82,SE,145,3.5,4.1,90,0.00,BKN,FEW,0.00,WeatherDisplay:10.37,2013-02-16 21:06:00,
2013-02-16 21:11:00,45.1,42.4,30.82,SE,145,5.8,5.8,90,0.00,BKN,FEW,0.00,WeatherDisplay:10.37,2013-02-16 21:11:00,
2013-02-16 21:16:00,45.1,42.4,30.82,SE,145,6.9,6.9,90,0.00,BKN,FEW,0.00,WeatherDisplay:10.37,2013-02-16 21:16:00,
2013-02-16 21:21:00,45.0,42.2,30.82,SE,145,8.1,8.1,90,0.00,BKN,FEW,0.00,WeatherDisplay:10.37,2013-02-16 21:21:00,
2013-02-16 21:26:00,45.1,42.7,30.82,SE,145,13.8,13.8,91,0.00,BKN,FEW,0.00,WeatherDisplay:10.37,2013-02-16 21:26:00,
2013-02-16 21:31:00,45.0,42.5,30.82,SE,145,9.2,9.2,91,0.00,BKN,FEW,0.00,WeatherDisplay:10.37,2013-02-16 21:31:00,
2013-02-16 21:36:00,45.0,42.5,30.82,ESE,122,8.1,8.1,91,0.00,BKN,FEW,0.00,WeatherDisplay:10.37,2013-02-16 21:36:00,
2013-02-16 21:41:00,45.0,42.5,30.82,ESE,122,5.8,5.8,91,0.00,BKN,FEW,0.00,WeatherDisplay:10.37,2013-02-16 21:41:00,
2013-02-16 21:46:00,44.8,42.3,30.82,ENE,78,3.5,3.6,91,0.00,BKN,FEW,0.00,WeatherDisplay:10.37,2013-02-16 21:46:00,
2013-02-16 21:51:00,44.8,42.3,30.82,West,280,5.8,5.8,91,0.00,BKN,FEW,0.00,WeatherDisplay:10.37,2013-02-16 21:51:00,
2013-02-16 21:56:00,44.8,42.3,30.82,East,100,6.9,6.9,91,0.00,BKN,FEW,0.00,WeatherDisplay:10.37,2013-02-16 21:56:00,
2013-02-16 22:01:00,44.8,42.3,30.82,East,100,8.5,8.5,91,0.00,BKN,FEW,0.00,WeatherDisplay:10.37,2013-02-16 22:01:00,
2013-02-16 22:06:00,44.8,42.6,30.82,WSW,258,6.9,6.9,92,0.00,BKN,FEW,0.00,WeatherDisplay:10.37,2013-02-16 22:06:00,
2013-02-16 22:11:00,45.0,42.8,30.82,SE,145,4.6,5.2,92,0.00,BKN,FEW,0.00,WeatherDisplay:10.37,2013-02-16 22:11:00,
2013-02-16 22:16:00,45.0,42.8,30.82,SE,145,9.2,9.2,92,0.00,BKN,FEW,0.00,WeatherDisplay:10.37,2013-02-16 22:16:00,
2013-02-16 22:21:00,45.0,42.8,30.79,SE,145,9.2,9.2,92,0.00,BKN,FEW,0.00,WeatherDisplay:10.37,2013-02-16 22:21:00,
2013-02-16 22:26:00,45.0,42.8,30.79,SE,145,10.4,10.4,92,0.00,BKN,FEW,0.00,WeatherDisplay:10.37,2013-02-16 22:26:00,
2013-02-16 22:31:00,45.0,42.8,30.79,ENE,78,9.2,9.2,92,0.00,BKN,FEW,0.00,WeatherDisplay:10.37,2013-02-16 22:31:00,
2013-02-16 22:36:00,45.0,42.8,30.79,SE,145,9.2,9.2,92,0.00,BKN,FEW,0.00,WeatherDisplay:10.37,2013-02-16 22:36:00,
2013-02-16 22:41:00,45.0,42.8,30.79,SE,145,11.5,11.5,92,0.00,BKN,FEW,0.00,WeatherDisplay:10.37,2013-02-16 22:41:00,
2013-02-16 22:46:00,45.1,43.0,30.79,SE,145,9.2,9.2,92,0.00,BKN,FEW,0.00,WeatherDisplay:10.37,2013-02-16 22:46:00,
2013-02-16 22:51:00,45.0,42.8,30.79,SE,145,7.1,7.1,92,0.00,BKN,FEW,0.00,WeatherDisplay:10.37,2013-02-16 22:51:00,
2013-02-16 22:56:00,45.1,43.0,30.79,WSW,258,5.8,5.8,92,0.00,BKN,FEW,0.00,WeatherDisplay:10.37,2013-02-16 22:56:00,
2013-02-16 23:01:00,45.1,43.0,30.79,ESE,122,8.1,8.1,92,0.00,BKN,FEW,0.00,WeatherDisplay:10.37,2013-02-16 23:01:00,
2013-02-16 23:06:00,45.1,43.0,30.79,ESE,122,13.8,13.8,92,0.00,BKN,FEW,0.00,WeatherDisplay:10.37,2013-02-16 23:06:00,
2013-02-16 23:11:00,45.1,43.0,30.79,East,100,9.2,9.2,92,0.00,BKN,FEW,0.00,WeatherDisplay:10.37,2013-02-16 23:11:00,
2013-02-16 23:16:00,45.0,42.8,30.79,ESE,122,10.4,10.4,92,0.00,BKN,FEW,0.00,WeatherDisplay:10.37,2013-02-16 23:16:00,
2013-02-16 23:21:00,45.1,43.0,30.76,ESE,122,6.9,6.9,92,0.00,BKN,FEW,0.00,WeatherDisplay:10.37,2013-02-16 23:21:00,
2013-02-16 23:26:00,45.1,43.0,30.76,ENE,78,10.4,10.4,92,0.00,BKN,FEW,0.00,WeatherDisplay:10.37,2013-02-16 23:26:00,
2013-02-16 23:31:00,45.0,43.1,30.76,SE,145,13.0,13.0,93,0.00,BKN,FEW,0.00,WeatherDisplay:10.37,2013-02-16 23:31:00,
2013-02-16 23:36:00,45.1,43.2,30.76,SSW,212,9.2,9.2,93,0.00,BKN,FEW,0.00,WeatherDisplay:10.37,2013-02-16 23:36:00,
2013-02-16 23:41:00,45.3,43.4,30.76,SE,145,6.9,6.9,93,0.00,BKN,FEW,0.00,WeatherDisplay:10.37,2013-02-16 23:41:00,
2013-02-16 23:46:00,45.5,43.3,30.76,East,100,4.6,4.6,92,0.00,BKN,FEW,0.00,WeatherDisplay:10.37,2013-02-16 23:46:00,
2013-02-16 23:51:00,45.5,43.3,30.76,SE,145,12.7,12.7,92,0.00,BKN,FEW,0.00,WeatherDisplay:10.37,2013-02-16 23:51:00,
2013-02-16 23:56:00,45.7,43.5,30.76,SE,145,10.4,10.4,92,0.00,BKN,FEW,0.00,WeatherDisplay:10.37,2013-02-16 23:56:00,